TimeCDT,TemperatureF,Dew PointF,Humidity,Sea Level PressureIn,VisibilityMPH,Wind Direction,Wind SpeedMPH,Gust SpeedMPH,PrecipitationIn,Events,Conditions,WindDirDegrees,DateUTC
12:16 AM,30.2,26.6,86,30.24,10.0,Calm,Calm,-,N/A,,Clear,0,2012-10-30 05:16:00
12:36 AM,32.0,26.6,80,30.24,10.0,Calm,Calm,-,N/A,,Clear,0,2012-10-30 05:36:00
12:56 AM,30.2,26.6,86,30.24,10.0,Calm,Calm,-,N/A,,Clear,0,2012-10-30 05:56:00
1:16 AM,30.2,26.6,86,30.24,10.0,Calm,Calm,-,N/A,,Clear,0,2012-10-30 06:16:00
1:35 AM,28.4,26.6,93,30.24,10.0,Calm,Calm,-,N/A,,Clear,0,2012-10-30 06:35:00
1:56 AM,26.6,24.8,93,30.25,10.0,Calm,Calm,-,N/A,,Clear,0,2012-10-30 06:56:00
2:16 AM,28.4,26.6,93,30.25,10.0,Calm,Calm,-,N/A,,Clear,0,2012-10-30 07:16:00
2:36 AM,30.2,26.6,86,30.25,10.0,Calm,Calm,-,N/A,,Clear,0,2012-10-30 07:36:00
2:56 AM,28.4,26.6,93,30.24,10.0,Calm,Calm,-,N/A,,Clear,0,2012-10-30 07:56:00
3:15 AM,28.4,26.6,93,30.24,10.0,Calm,Calm,-,N/A,,Clear,0,2012-10-30 08:15:00
3:36 AM,28.4,26.6,93,30.24,10.0,Calm,Calm,-,N/A,,Clear,0,2012-10-30 08:36:00
3:55 AM,28.4,26.6,93,30.24,10.0,Calm,Calm,-,N/A,,Clear,0,2012-10-30 08:55:00
4:16 AM,28.4,26.6,93,30.24,10.0,Calm,Calm,-,N/A,,Clear,0,2012-10-30 09:16:00
4:36 AM,26.6,26.6,100,30.24,10.0,Calm,Calm,-,N/A,,Clear,0,2012-10-30 09:36:00
4:56 AM,30.2,26.6,86,30.24,10.0,East,3.5,-,N/A,,Clear,100,2012-10-30 09:56:00
5:15 AM,30.2,26.6,86,30.23,10.0,Calm,Calm,-,N/A,,Clear,0,2012-10-30 10:15:00
5:36 AM,30.2,28.4,93,30.23,10.0,Calm,Calm,-,N/A,,Clear,0,2012-10-30 10:36:00
5:56 AM,28.4,26.6,93,30.23,10.0,Calm,Calm,-,N/A,,Clear,0,2012-10-30 10:56:00
6:16 AM,28.4,28.4,100,30.23,10.0,Calm,Calm,-,N/A,,Clear,0,2012-10-30 11:16:00
6:36 AM,28.4,28.4,100,30.22,10.0,Calm,Calm,-,N/A,,Clear,0,2012-10-30 11:36:00
6:56 AM,28.4,26.6,93,30.23,10.0,Calm,Calm,-,N/A,,Clear,0,2012-10-30 11:56:00
7:16 AM,26.6,24.8,93,30.24,7.0,Calm,Calm,-,N/A,,Clear,0,2012-10-30 12:16:00
7:36 AM,24.8,24.8,100,30.24,7.0,Calm,Calm,-,N/A,,Clear,0,2012-10-30 12:36:00
7:56 AM,24.8,23.0,93,30.24,7.0,Calm,Calm,-,N/A,,Clear,0,2012-10-30 12:56:00
8:36 AM,23.0,23.0,100,30.25,7.0,Calm,Calm,-,N/A,,Scattered Clouds,0,2012-10-30 13:36:00
8:56 AM,26.6,26.6,100,30.24,10.0,East,3.5,-,N/A,,Mostly Cloudy,80,2012-10-30 13:56:00
9:16 AM,30.2,28.4,93,30.24,4.0,Calm,Calm,-,N/A,,Overcast,0,2012-10-30 14:16:00
9:36 AM,30.2,30.2,100,30.23,2.5,Calm,Calm,-,N/A,,Overcast,0,2012-10-30 14:36:00
9:55 AM,32.0,30.2,93,30.23,2.5,Calm,Calm,-,N/A,,Overcast,0,2012-10-30 14:55:00
10:16 AM,33.8,32.0,93,30.23,5.0,East,4.6,-,N/A,,Overcast,100,2012-10-30 15:16:00
10:35 AM,33.8,33.8,100,30.23,10.0,Calm,Calm,-,N/A,,Overcast,0,2012-10-30 15:35:00
10:55 AM,35.6,33.8,93,30.23,10.0,East,3.5,-,N/A,,Mostly Cloudy,80,2012-10-30 15:55:00
11:15 AM,37.4,32.0,81,30.21,10.0,SE,4.6,-,N/A,,Scattered Clouds,130,2012-10-30 16:15:00
11:36 AM,39.2,30.2,70,30.22,10.0,ESE,4.6,-,N/A,,Clear,110,2012-10-30 16:36:00
11:55 AM,39.2,32.0,75,30.22,10.0,Calm,Calm,-,N/A,,Clear,0,2012-10-30 16:55:00
12:15 PM,41.0,32.0,70,30.21,10.0,ENE,5.8,-,N/A,,Clear,70,2012-10-30 17:15:00
12:36 PM,41.0,32.0,70,30.21,10.0,ENE,5.8,-,N/A,,Clear,70,2012-10-30 17:36:00
12:56 PM,41.0,32.0,70,30.20,10.0,ENE,3.5,-,N/A,,Clear,70,2012-10-30 17:56:00
1:16 PM,39.2,32.0,75,30.19,10.0,ENE,4.6,-,N/A,,Clear,60,2012-10-30 18:16:00
1:37 PM,39.2,30.2,70,30.19,10.0,ENE,4.6,-,N/A,,Clear,70,2012-10-30 18:37:00
1:56 PM,37.4,30.2,75,30.18,10.0,ENE,3.5,-,N/A,,Clear,60,2012-10-30 18:56:00
2:15 PM,39.2,30.2,70,30.17,10.0,ENE,3.5,-,N/A,,Clear,70,2012-10-30 19:15:00
2:36 PM,39.2,30.2,70,30.16,10.0,Calm,Calm,-,N/A,,Clear,0,2012-10-30 19:36:00
2:56 PM,41.0,30.2,65,30.16,10.0,Calm,Calm,-,N/A,,Clear,0,2012-10-30 19:56:00
3:16 PM,39.2,30.2,70,30.15,10.0,Calm,Calm,-,N/A,,Clear,0,2012-10-30 20:16:00
3:36 PM,42.8,32.0,66,30.15,10.0,Calm,Calm,-,N/A,,Clear,0,2012-10-30 20:36:00
3:55 PM,42.8,30.2,61,30.15,10.0,Calm,Calm,-,N/A,,Clear,0,2012-10-30 20:55:00
4:36 PM,41.0,30.2,65,30.14,10.0,Calm,Calm,-,N/A,,Clear,0,2012-10-30 21:36:00
4:56 PM,41.0,32.0,70,30.13,10.0,Calm,Calm,-,N/A,,Clear,0,2012-10-30 21:56:00
5:16 PM,41.0,32.0,70,30.13,10.0,Calm,Calm,-,N/A,,Clear,0,2012-10-30 22:16:00
5:36 PM,39.2,32.0,75,30.13,10.0,Calm,Calm,-,N/A,,Clear,0,2012-10-30 22:36:00
5:56 PM,39.2,32.0,75,30.13,10.0,Calm,Calm,-,N/A,,Clear,0,2012-10-30 22:56:00
6:15 PM,37.4,30.2,75,30.13,10.0,Calm,Calm,-,N/A,,Clear,0,2012-10-30 23:15:00
6:36 PM,35.6,30.2,81,30.12,10.0,Calm,Calm,-,N/A,,Clear,0,2012-10-30 23:36:00
6:56 PM,32.0,28.4,87,30.12,10.0,Calm,Calm,-,N/A,,Clear,0,2012-10-30 23:56:00
7:16 PM,30.2,28.4,93,30.12,10.0,Calm,Calm,-,N/A,,Clear,0,2012-10-31 00:16:00
7:36 PM,32.0,30.2,93,30.12,10.0,Calm,Calm,-,N/A,,Clear,0,2012-10-31 00:36:00
7:55 PM,30.2,30.2,100,30.12,10.0,Calm,Calm,-,N/A,,Clear,0,2012-10-31 00:55:00
8:16 PM,28.4,28.4,100,30.11,7.0,Calm,Calm,-,N/A,,Clear,0,2012-10-31 01:16:00
8:36 PM,28.4,28.4,100,30.11,5.0,Calm,Calm,-,N/A,,Clear,0,2012-10-31 01:36:00
8:56 PM,28.4,26.6,93,30.11,4.0,Calm,Calm,-,N/A,,Clear,0,2012-10-31 01:56:00
9:16 PM,26.6,26.6,100,30.11,7.0,Calm,Calm,-,N/A,,Clear,0,2012-10-31 02:16:00
9:36 PM,24.8,24.8,100,30.10,10.0,Calm,Calm,-,N/A,,Clear,0,2012-10-31 02:36:00
9:56 PM,24.8,24.8,100,30.10,10.0,Calm,Calm,-,N/A,,Clear,0,2012-10-31 02:56:00
10:16 PM,24.8,24.8,100,30.09,10.0,Calm,Calm,-,N/A,,Clear,0,2012-10-31 03:16:00
10:36 PM,24.8,24.8,100,30.09,10.0,Calm,Calm,-,N/A,,Clear,0,2012-10-31 03:36:00
10:56 PM,24.8,24.8,100,30.09,10.0,Calm,Calm,-,N/A,,Clear,0,2012-10-31 03:56:00
11:16 PM,24.8,23.0,93,30.10,10.0,Calm,Calm,-,N/A,,Clear,0,2012-10-31 04:16:00
11:36 PM,23.0,21.2,93,30.10,10.0,Calm,Calm,-,N/A,,Clear,0,2012-10-31 04:36:00
11:56 PM,21.2,21.2,100,30.10,10.0,Calm,Calm,-,N/A,,Clear,0,2012-10-31 04:56:00